Find Starlink 35808

NORAD ID: 68052 Int'l Des: 2026-041 Owner: SPXS Country: US Constellation: starlink operational
LEOCIRCULAR

实时位置

正在加载3D地球...

关于 Starlink 35808

正在加载描述...

即将过境

Passes for default location (London). Set your location on the main map for personalized predictions.

高度历史

Loading altitude history...

两行轨道根数

1 68052U 26041N 26106.91668981 -.02207438 00000-0 -62753-1 0 9999
2 68052 53.1601 232.7186 0001397 67.4615 353.2768 15.39011224 6061
Epoch: Apr 16, 2026 • Age: 10 hours

当前状态

高度 474.0 km
速度 7.63 km/s
星下点 -51.71°S, 152.73°E
发射日期 Mar 2, 2026
运行时间 0.1 years
类型 internet

技术详情

分类 Payload
质量 575.00 kg
干质量 530.00 kg
总质量 575.00 kg
长度 0.30 m
直径 4.10 m
跨度 29.00 m
形状 Box + pan
制造商 SPXS
平台类型 Starlink V2MO
阶段状态 In Orbit
所有者/国家 SPXS/US

Most Searched